Location: Karcze
(52.0945°N, 22.4786°E)
Time: 21:54:29
(UTC+00:00)

Transit 4A - Pass Details

Date: 31 July 2021
Orbit: 871 x 974 km, 66.8° (Epoch: 18 September)

Event Time Altitude Azimuth Distance (km) Brightness Sun altitude
Exits shadow 22:38:26 37° 183° (S) 1,328 8.2 -19.9°
Maximum altitude 22:40:35 60° 121° (ESE) 996 7.9 -19.9°
Drops below altitude 10° 22:46:19 10° 43° (NE) 2,528 10.8 -19.9°
Sets 22:48:49 0° 40° (NE) 3,471 11.7 -19.8°
